Orbital Elements at Epoch 2459000.5 (2020-May-31.0) TDB
Reference: JPL 17 (heliocentric ecliptic J2000)
Element | Value | Uncertainty (1-sigma) | Units |
e | .1985094024777072 | 3.7987e-08 | |
a | 2.582995486919168 | 1.451e-08 | au |
q | 2.07024659620823 | 9.6245e-08 | au |
i | 3.787854855582445 | 5.1697e-06 | deg |
node | 2.654363282640288 | 8.5037e-05 | deg |
peri | 26.80750552632358 | 8.6947e-05 | deg |
M | 79.10958975270502 | 2.1446e-05 | deg |
tp | 2458667.295752050716 (2019-Jul-02.79575205) | 8.8449e-05 | TDB |
period | 1516.295680924584 4.15 | 1.2776e-05 3.498e-08 | d yr |
n | .2374207118894414 | 2.0005e-09 | deg/d |
Q | 3.095744377630107 | 1.739e-08 | au |
|
| | Orbit Determination Parameters
Additional Information
|